Time,TemperatureF,DewpointF,PressureIn,WindDirection,WindDirectionDegrees,WindSpeedMPH,WindSpeedGustMPH,Humidity,HourlyPrecipIn,Conditions,Clouds,dailyrainin,SoftwareType,DateUTC
2013-07-06 00:01:00,72.2,71.0,30.26,WSW,238,0.0,0.0,96,0.00,,---,0.00,VWS V14.01,2013-07-06 04:01:00,
2013-07-06 00:06:00,72.1,70.6,30.26,WSW,238,0.0,0.0,95,0.00,,---,0.00,VWS V14.01,2013-07-06 04:06:00,
2013-07-06 00:11:00,72.1,70.6,30.26,WSW,238,0.0,0.0,95,0.00,,---,0.00,VWS V14.01,2013-07-06 04:11:00,
2013-07-06 00:16:00,71.9,70.4,30.26,WSW,238,0.0,0.0,95,0.00,,---,0.00,VWS V14.01,2013-07-06 04:16:00,
2013-07-06 00:21:00,71.8,70.6,30.25,WSW,238,0.0,0.0,96,0.00,,---,0.00,VWS V14.01,2013-07-06 04:21:00,
2013-07-06 00:26:00,71.7,70.5,30.25,WSW,238,0.0,0.0,96,0.00,,---,0.00,VWS V14.01,2013-07-06 04:26:00,
2013-07-06 00:31:00,71.6,70.4,30.25,WSW,238,0.0,0.0,96,0.00,,---,0.00,VWS V14.01,2013-07-06 04:31:00,
2013-07-06 00:36:00,71.5,70.3,30.25,WSW,238,0.0,0.0,96,0.00,,---,0.00,VWS V14.01,2013-07-06 04:36:00,
2013-07-06 00:41:00,71.4,70.2,30.25,WSW,238,0.0,0.0,96,0.00,,---,0.00,VWS V14.01,2013-07-06 04:41:00,
2013-07-06 00:46:00,71.2,70.0,30.25,WSW,238,0.0,0.0,96,0.00,,---,0.00,VWS V14.01,2013-07-06 04:46:00,
2013-07-06 00:51:00,71.1,69.9,30.25,WSW,238,0.0,0.0,96,0.00,,---,0.00,VWS V14.01,2013-07-06 04:51:00,
2013-07-06 00:56:00,71.0,69.8,30.24,WSW,238,0.0,0.0,96,0.00,,---,0.00,VWS V14.01,2013-07-06 04:56:00,
2013-07-06 01:01:00,71.0,69.8,30.24,WSW,238,0.0,0.0,96,0.00,,---,0.00,VWS V14.01,2013-07-06 05:01:00,
2013-07-06 01:06:00,70.8,69.6,30.24,WSW,238,0.0,0.0,96,0.00,,---,0.00,VWS V14.01,2013-07-06 05:06:00,
2013-07-06 01:11:00,70.6,69.4,30.24,WSW,238,0.0,0.0,96,0.00,,---,0.00,VWS V14.01,2013-07-06 05:11:00,
2013-07-06 01:16:00,70.5,69.3,30.24,WSW,238,0.0,0.0,96,0.00,,---,0.00,VWS V14.01,2013-07-06 05:16:00,
2013-07-06 01:21:00,70.4,69.2,30.24,WSW,238,0.0,0.0,96,0.00,,---,0.00,VWS V14.01,2013-07-06 05:21:00,
2013-07-06 01:26:00,70.3,69.1,30.24,WSW,238,0.0,0.0,96,0.00,,---,0.00,VWS V14.01,2013-07-06 05:26:00,
2013-07-06 01:31:00,70.1,68.9,30.24,WSW,238,0.0,0.0,96,0.00,,---,0.00,VWS V14.01,2013-07-06 05:31:00,
2013-07-06 01:36:00,70.1,68.9,30.24,WSW,238,0.0,0.0,96,0.00,,---,0.00,VWS V14.01,2013-07-06 05:36:00,
2013-07-06 01:41:00,70.0,68.8,30.24,WSW,238,0.0,0.0,96,0.00,,---,0.00,VWS V14.01,2013-07-06 05:41:00,
2013-07-06 01:46:00,69.9,68.7,30.24,WSW,238,0.0,0.0,96,0.00,,---,0.00,VWS V14.01,2013-07-06 05:46:00,
2013-07-06 01:51:00,69.9,68.7,30.23,WSW,238,0.0,0.0,96,0.00,,---,0.00,VWS V14.01,2013-07-06 05:51:00,
2013-07-06 01:56:00,69.8,68.6,30.23,WSW,238,0.0,0.0,96,0.00,,---,0.00,VWS V14.01,2013-07-06 05:56:00,
2013-07-06 02:01:00,69.7,68.5,30.24,WSW,238,0.0,0.0,96,0.00,,---,0.00,VWS V14.01,2013-07-06 06:01:00,
2013-07-06 02:06:00,69.6,68.4,30.24,WSW,238,0.0,0.0,96,0.00,,---,0.00,VWS V14.01,2013-07-06 06:06:00,
2013-07-06 02:11:00,69.7,68.8,30.24,WSW,238,0.0,0.0,97,0.00,,---,0.00,VWS V14.01,2013-07-06 06:11:00,
2013-07-06 02:16:00,69.7,68.8,30.24,WSW,238,0.0,0.0,97,0.00,,---,0.00,VWS V14.01,2013-07-06 06:16:00,
2013-07-06 02:21:00,69.7,68.8,30.24,WSW,238,0.0,0.0,97,0.00,,---,0.00,VWS V14.01,2013-07-06 06:21:00,
2013-07-06 02:26:00,69.6,68.7,30.24,WSW,238,0.0,0.0,97,0.00,,---,0.00,VWS V14.01,2013-07-06 06:26:00,
2013-07-06 02:31:00,69.7,68.8,30.24,WSW,238,0.0,0.0,97,0.00,,---,0.00,VWS V14.01,2013-07-06 06:31:00,
2013-07-06 02:36:00,69.7,68.8,30.24,WSW,238,0.0,0.0,97,0.00,,---,0.00,VWS V14.01,2013-07-06 06:36:00,
2013-07-06 02:41:00,69.7,68.8,30.24,WSW,238,0.0,0.0,97,0.00,,---,0.00,VWS V14.01,2013-07-06 06:41:00,
2013-07-06 02:46:00,69.8,68.9,30.24,WSW,238,0.0,0.0,97,0.00,,---,0.00,VWS V14.01,2013-07-06 06:46:00,
2013-07-06 02:51:00,69.8,68.9,30.24,WSW,238,0.0,0.0,97,0.00,,---,0.00,VWS V14.01,2013-07-06 06:51:00,
2013-07-06 02:56:00,69.8,68.9,30.24,WSW,238,0.0,0.0,97,0.00,,---,0.00,VWS V14.01,2013-07-06 06:56:00,
2013-07-06 03:01:00,69.9,69.0,30.24,WSW,238,0.0,0.0,97,0.00,,---,0.00,VWS V14.01,2013-07-06 07:01:00,
2013-07-06 03:06:00,69.9,69.0,30.24,WSW,238,0.0,0.0,97,0.00,,---,0.00,VWS V14.01,2013-07-06 07:06:00,
2013-07-06 03:11:00,69.8,68.9,30.24,WSW,238,0.0,0.0,97,0.00,,---,0.00,VWS V14.01,2013-07-06 07:11:00,
2013-07-06 03:16:00,69.7,68.8,30.24,WSW,238,0.0,0.0,97,0.00,,---,0.00,VWS V14.01,2013-07-06 07:16:00,
2013-07-06 03:21:00,69.8,68.9,30.24,WSW,238,0.0,0.0,97,0.00,,---,0.00,VWS V14.01,2013-07-06 07:21:00,
2013-07-06 03:26:00,69.8,68.9,30.24,WSW,238,0.0,0.0,97,0.00,,---,0.00,VWS V14.01,2013-07-06 07:26:00,
2013-07-06 03:31:00,69.8,68.9,30.24,WSW,238,0.0,0.0,97,0.00,,---,0.00,VWS V14.01,2013-07-06 07:31:00,
2013-07-06 03:36:00,69.8,68.9,30.24,WSW,238,0.0,0.0,97,0.00,,---,0.00,VWS V14.01,2013-07-06 07:36:00,
2013-07-06 03:40:00,69.8,68.9,30.24,WSW,238,0.0,0.0,97,0.00,,---,0.00,VWS V14.01,2013-07-06 07:40:00,
2013-07-06 03:45:00,69.8,68.9,30.23,WSW,238,0.0,0.0,97,0.00,,---,0.00,VWS V14.01,2013-07-06 07:45:00,
2013-07-06 03:50:00,69.8,68.9,30.24,WSW,238,0.0,0.0,97,0.00,,---,0.00,VWS V14.01,2013-07-06 07:50:00,
2013-07-06 03:55:00,70.1,69.2,30.24,WSW,238,0.0,0.0,97,0.00,,---,0.00,VWS V14.01,2013-07-06 07:55:00,
2013-07-06 04:00:00,70.1,69.2,30.24,WSW,238,0.0,0.0,97,0.00,,---,0.00,VWS V14.01,2013-07-06 08:00:00,
2013-07-06 04:05:00,70.1,69.2,30.23,WSW,238,0.0,0.0,97,0.00,,---,0.00,VWS V14.01,2013-07-06 08:05:00,
2013-07-06 04:10:00,70.1,69.2,30.23,WSW,238,0.0,0.0,97,0.00,,---,0.00,VWS V14.01,2013-07-06 08:10:00,
2013-07-06 04:15:00,70.1,69.2,30.23,WSW,238,0.0,0.0,97,0.00,,---,0.00,VWS V14.01,2013-07-06 08:15:00,
2013-07-06 04:20:00,70.3,69.4,30.23,WSW,238,0.0,0.0,97,0.00,,---,0.00,VWS V14.01,2013-07-06 08:20:00,
2013-07-06 04:25:00,70.3,69.4,30.23,WSW,238,0.0,0.0,97,0.00,,---,0.00,VWS V14.01,2013-07-06 08:25:00,
2013-07-06 04:30:00,70.3,69.4,30.23,WSW,238,0.0,0.0,97,0.00,,---,0.00,VWS V14.01,2013-07-06 08:30:00,
2013-07-06 04:35:00,70.3,69.4,30.23,WSW,238,0.0,0.0,97,0.00,,---,0.00,VWS V14.01,2013-07-06 08:35:00,
2013-07-06 04:40:00,70.3,69.4,30.24,WSW,238,0.0,0.0,97,0.00,,---,0.00,VWS V14.01,2013-07-06 08:40:00,
2013-07-06 04:45:00,70.3,69.4,30.24,WSW,238,0.0,0.0,97,0.00,,---,0.00,VWS V14.01,2013-07-06 08:45:00,
2013-07-06 04:50:00,70.3,69.4,30.24,WSW,238,0.0,0.0,97,0.00,,---,0.00,VWS V14.01,2013-07-06 08:50:00,
2013-07-06 04:55:00,70.3,69.4,30.23,WSW,238,0.0,0.0,97,0.00,,---,0.00,VWS V14.01,2013-07-06 08:55:00,
2013-07-06 05:00:00,70.2,69.3,30.23,WSW,238,0.0,0.0,97,0.00,,---,0.00,VWS V14.01,2013-07-06 09:00:00,
2013-07-06 05:05:00,70.0,69.1,30.23,WSW,238,0.0,0.0,97,0.00,,---,0.00,VWS V14.01,2013-07-06 09:05:00,
2013-07-06 05:10:00,69.9,69.0,30.23,WSW,238,0.0,0.0,97,0.00,,---,0.00,VWS V14.01,2013-07-06 09:10:00,
2013-07-06 05:15:00,69.7,68.8,30.24,WSW,238,0.0,0.0,97,0.00,,---,0.00,VWS V14.01,2013-07-06 09:15:00,
2013-07-06 05:20:00,69.6,68.7,30.24,WSW,238,0.0,0.0,97,0.00,,---,0.00,VWS V14.01,2013-07-06 09:20:00,
2013-07-06 05:25:00,69.4,68.5,30.24,WSW,238,0.0,0.0,97,0.00,,---,0.00,VWS V14.01,2013-07-06 09:25:00,
2013-07-06 05:30:00,69.3,68.4,30.24,WSW,238,0.0,0.0,97,0.00,,---,0.00,VWS V14.01,2013-07-06 09:30:00,
2013-07-06 05:35:00,69.2,68.3,30.24,WSW,238,0.0,0.0,97,0.00,,---,0.00,VWS V14.01,2013-07-06 09:35:00,
2013-07-06 05:40:00,69.0,68.1,30.24,WSW,238,0.0,0.0,97,0.00,,---,0.00,VWS V14.01,2013-07-06 09:40:00,
2013-07-06 05:45:00,68.8,67.6,30.25,WSW,238,0.0,0.0,96,0.00,,---,0.00,VWS V14.01,2013-07-06 09:45:00,
2013-07-06 05:50:00,68.7,67.8,30.25,WSW,238,0.0,0.0,97,0.00,,---,0.00,VWS V14.01,2013-07-06 09:50:00,
2013-07-06 05:55:00,68.6,67.7,30.25,WSW,238,0.0,0.0,97,0.00,,---,0.00,VWS V14.01,2013-07-06 09:55:00,
2013-07-06 06:00:00,68.6,67.7,30.25,WSW,238,0.0,0.0,97,0.00,,---,0.00,VWS V14.01,2013-07-06 10:00:00,
2013-07-06 06:05:00,68.6,67.7,30.25,WSW,238,0.0,0.0,97,0.00,,---,0.00,VWS V14.01,2013-07-06 10:05:00,
2013-07-06 06:10:00,68.5,67.6,30.25,WSW,238,0.0,0.0,97,0.00,,---,0.00,VWS V14.01,2013-07-06 10:10:00,
2013-07-06 06:15:00,68.6,67.7,30.26,WSW,238,0.0,0.0,97,0.00,,---,0.00,VWS V14.01,2013-07-06 10:15:00,
2013-07-06 06:20:00,68.6,67.7,30.26,WSW,238,0.0,0.0,97,0.00,,---,0.00,VWS V14.01,2013-07-06 10:20:00,
2013-07-06 06:25:00,68.6,67.7,30.26,WSW,238,0.0,0.0,97,0.00,,---,0.00,VWS V14.01,2013-07-06 10:25:00,
2013-07-06 06:30:00,68.6,67.7,30.26,WSW,238,0.0,0.0,97,0.00,,---,0.00,VWS V14.01,2013-07-06 10:30:00,
2013-07-06 06:35:00,68.7,67.8,30.26,WSW,238,0.0,0.0,97,0.00,,---,0.00,VWS V14.01,2013-07-06 10:35:00,
2013-07-06 06:40:00,68.7,67.8,30.26,WSW,238,0.0,0.0,97,0.00,,---,0.00,VWS V14.01,2013-07-06 10:40:00,
2013-07-06 06:45:00,68.8,67.9,30.26,WSW,238,0.0,0.0,97,0.00,,---,0.00,VWS V14.01,2013-07-06 10:45:00,
2013-07-06 06:50:00,69.0,68.1,30.26,WSW,238,0.0,0.0,97,0.00,,---,0.00,VWS V14.01,2013-07-06 10:50:00,
2013-07-06 06:55:00,69.1,68.5,30.26,WSW,238,0.0,0.0,98,0.00,,---,0.00,VWS V14.01,2013-07-06 10:55:00,
2013-07-06 07:00:00,69.3,68.7,30.26,WSW,238,0.0,0.0,98,0.00,,---,0.00,VWS V14.01,2013-07-06 11:00:00,
2013-07-06 07:05:00,69.5,68.9,30.26,WSW,238,0.0,0.0,98,0.00,,---,0.00,VWS V14.01,2013-07-06 11:05:00,
2013-07-06 07:10:00,69.7,69.1,30.26,WSW,238,0.0,0.0,98,0.00,,---,0.00,VWS V14.01,2013-07-06 11:10:00,
2013-07-06 07:15:00,69.9,69.3,30.27,WSW,238,0.0,0.0,98,0.00,,---,0.00,VWS V14.01,2013-07-06 11:15:00,
2013-07-06 07:20:00,70.2,69.6,30.26,WSW,238,0.0,0.0,98,0.00,,---,0.00,VWS V14.01,2013-07-06 11:20:00,
2013-07-06 07:25:00,70.3,69.7,30.27,WSW,238,0.0,0.0,98,0.00,,---,0.00,VWS V14.01,2013-07-06 11:25:00,
2013-07-06 07:30:00,70.5,69.9,30.27,WSW,238,0.0,0.0,98,0.00,,---,0.00,VWS V14.01,2013-07-06 11:30:00,
2013-07-06 07:35:00,70.6,70.0,30.27,WSW,238,0.0,0.0,98,0.00,,---,0.00,VWS V14.01,2013-07-06 11:35:00,
2013-07-06 07:40:00,70.6,70.0,30.27,SE,145,0.0,1.0,98,0.00,,---,0.00,VWS V14.01,2013-07-06 11:40:00,
2013-07-06 07:45:00,70.8,70.2,30.27,SSE,159,0.0,1.0,98,0.00,,---,0.00,VWS V14.01,2013-07-06 11:45:00,
2013-07-06 07:50:00,70.8,69.9,30.27,SSE,159,0.0,1.0,97,0.00,,---,0.00,VWS V14.01,2013-07-06 11:50:00,
2013-07-06 07:55:00,70.8,69.9,30.27,SSE,159,0.0,1.0,97,0.00,,---,0.00,VWS V14.01,2013-07-06 11:55:00,
2013-07-06 08:00:00,70.9,70.0,30.27,SSE,159,0.0,0.0,97,0.00,,---,0.00,VWS V14.01,2013-07-06 12:00:00,
2013-07-06 08:05:00,71.0,70.1,30.26,SSE,159,1.0,1.0,97,0.00,,---,0.00,VWS V14.01,2013-07-06 12:05:00,
2013-07-06 08:10:00,71.1,70.2,30.26,SE,129,0.0,2.0,97,0.00,,---,0.00,VWS V14.01,2013-07-06 12:10:00,
2013-07-06 08:15:00,71.2,70.3,30.27,SE,129,0.0,0.0,97,0.00,,---,0.00,VWS V14.01,2013-07-06 12:15:00,
2013-07-06 08:20:00,71.3,70.4,30.27,SE,129,0.0,1.0,97,0.00,,---,0.00,VWS V14.01,2013-07-06 12:20:00,
2013-07-06 08:25:00,71.5,70.3,30.27,SSE,167,0.0,1.0,96,0.00,,---,0.00,VWS V14.01,2013-07-06 12:25:00,
2013-07-06 08:30:00,71.6,70.4,30.27,South,171,0.0,0.0,96,0.00,,---,0.00,VWS V14.01,2013-07-06 12:30:00,
2013-07-06 08:35:00,71.7,70.5,30.27,South,175,1.0,2.0,96,0.00,,---,0.00,VWS V14.01,2013-07-06 12:35:00,
2013-07-06 08:40:00,71.8,70.3,30.27,South,175,0.0,2.0,95,0.00,,---,0.00,VWS V14.01,2013-07-06 12:40:00,
2013-07-06 08:45:00,71.7,70.2,30.27,South,175,0.0,0.0,95,0.00,,---,0.00,VWS V14.01,2013-07-06 12:45:00,
2013-07-06 08:50:00,71.8,70.3,30.28,South,177,0.0,1.0,95,0.00,,---,0.00,VWS V14.01,2013-07-06 12:50:00,
2013-07-06 08:55:00,71.9,70.4,30.27,South,177,0.0,1.0,95,0.00,,---,0.00,VWS V14.01,2013-07-06 12:55:00,
2013-07-06 09:00:00,72.1,70.6,30.28,SE,130,2.0,2.0,95,0.00,,---,0.00,VWS V14.01,2013-07-06 13:00:00,
2013-07-06 09:05:00,72.1,70.3,30.28,SW,225,0.0,3.0,94,0.00,,---,0.00,VWS V14.01,2013-07-06 13:05:00,
2013-07-06 09:10:00,72.2,70.4,30.28,SE,142,0.0,3.0,94,0.00,,---,0.00,VWS V14.01,2013-07-06 13:10:00,
2013-07-06 09:15:00,72.1,70.3,30.28,SSW,208,1.0,1.0,94,0.00,,---,0.00,VWS V14.01,2013-07-06 13:15:00,
2013-07-06 09:20:00,72.1,70.3,30.28,South,177,0.0,3.0,94,0.00,,---,0.00,VWS V14.01,2013-07-06 13:20:00,
2013-07-06 09:25:00,72.1,70.3,30.28,SSE,155,0.0,3.0,94,0.00,,---,0.00,VWS V14.01,2013-07-06 13:25:00,
2013-07-06 09:30:00,72.1,70.3,30.28,SSW,196,0.0,1.0,94,0.00,,---,0.00,VWS V14.01,2013-07-06 13:30:00,
2013-07-06 09:35:00,72.2,70.4,30.28,SSE,156,0.0,2.0,94,0.00,,---,0.00,VWS V14.01,2013-07-06 13:35:00,
2013-07-06 09:40:00,72.2,70.4,30.28,South,173,0.0,4.0,94,0.00,,---,0.00,VWS V14.01,2013-07-06 13:40:00,
2013-07-06 09:45:00,72.4,70.6,30.28,SW,236,1.0,1.0,94,0.00,,---,0.00,VWS V14.01,2013-07-06 13:45:00,
2013-07-06 09:50:00,72.5,70.4,30.28,SSE,154,0.0,2.0,93,0.00,,---,0.00,VWS V14.01,2013-07-06 13:50:00,
2013-07-06 09:55:00,72.7,70.6,30.28,South,173,0.0,3.0,93,0.00,,---,0.00,VWS V14.01,2013-07-06 13:55:00,
2013-07-06 10:00:00,73.0,70.9,30.28,South,173,0.0,0.0,93,0.00,,---,0.00,VWS V14.01,2013-07-06 14:00:00,
2013-07-06 10:05:00,73.3,70.8,30.28,SSE,165,0.0,2.0,92,0.00,,---,0.00,VWS V14.01,2013-07-06 14:05:00,
2013-07-06 10:10:00,73.7,70.9,30.28,ESE,110,0.0,2.0,91,0.00,,---,0.00,VWS V14.01,2013-07-06 14:10:00,
2013-07-06 10:15:00,74.2,71.1,30.28,SSE,164,2.0,2.0,90,0.00,,---,0.00,VWS V14.01,2013-07-06 14:15:00,
2013-07-06 10:20:00,74.4,71.3,30.28,WNW,287,0.0,2.0,90,0.00,,---,0.00,VWS V14.01,2013-07-06 14:20:00,
2013-07-06 10:25:00,74.6,71.5,30.28,WSW,237,0.0,2.0,90,0.00,,---,0.00,VWS V14.01,2013-07-06 14:25:00,
2013-07-06 10:30:00,74.9,71.8,30.28,SSE,158,0.0,1.0,90,0.00,,---,0.00,VWS V14.01,2013-07-06 14:30:00,
2013-07-06 10:35:00,75.5,71.7,30.28,SE,146,1.0,2.0,88,0.00,,---,0.00,VWS V14.01,2013-07-06 14:35:00,
2013-07-06 10:40:00,76.2,72.7,30.27,ESE,122,2.0,5.0,89,0.00,,---,0.00,VWS V14.01,2013-07-06 14:40:00,
2013-07-06 10:45:00,76.9,72.4,30.27,NE,46,0.0,1.0,86,0.00,,---,0.00,VWS V14.01,2013-07-06 14:45:00,
2013-07-06 10:50:00,77.4,72.5,30.27,SE,127,0.0,1.0,85,0.00,,---,0.00,VWS V14.01,2013-07-06 14:50:00,
2013-07-06 10:55:00,78.0,73.1,30.27,SW,222,0.0,2.0,85,0.00,,---,0.00,VWS V14.01,2013-07-06 14:55:00,
2013-07-06 11:00:00,78.4,72.8,30.27,West,274,0.0,1.0,83,0.00,,---,0.00,VWS V14.01,2013-07-06 15:00:00,
2013-07-06 11:05:00,78.3,72.4,30.27,East,82,0.0,1.0,82,0.00,,---,0.00,VWS V14.01,2013-07-06 15:05:00,
2013-07-06 11:10:00,78.7,72.8,30.27,SSW,206,0.0,2.0,82,0.00,,---,0.00,VWS V14.01,2013-07-06 15:10:00,
2013-07-06 11:15:00,79.4,73.4,30.27,SSW,210,0.0,0.0,82,0.00,,---,0.00,VWS V14.01,2013-07-06 15:15:00,
2013-07-06 11:20:00,79.9,73.6,30.27,South,176,2.0,3.0,81,0.00,,---,0.00,VWS V14.01,2013-07-06 15:20:00,
2013-07-06 11:25:00,79.8,71.6,30.27,South,186,0.0,4.0,76,0.00,,---,0.00,VWS V14.01,2013-07-06 15:25:00,
2013-07-06 11:30:00,79.7,73.0,30.27,WSW,251,1.0,1.0,80,0.00,,---,0.00,VWS V14.01,2013-07-06 15:30:00,
2013-07-06 11:35:00,79.8,72.7,30.27,SSE,161,0.0,2.0,79,0.00,,---,0.00,VWS V14.01,2013-07-06 15:35:00,
2013-07-06 11:40:00,79.9,72.4,30.27,South,188,3.0,4.0,78,0.00,,---,0.00,VWS V14.01,2013-07-06 15:40:00,
2013-07-06 11:45:00,80.2,72.7,30.26,SSW,204,0.0,1.0,78,0.00,,---,0.00,VWS V14.01,2013-07-06 15:45:00,
2013-07-06 11:50:00,80.9,73.4,30.26,SE,125,0.0,4.0,78,0.00,,---,0.00,VWS V14.01,2013-07-06 15:50:00,
2013-07-06 11:55:00,81.1,73.2,30.26,ENE,67,0.0,4.0,77,0.00,,---,0.00,VWS V14.01,2013-07-06 15:55:00,
2013-07-06 12:00:00,81.2,72.9,30.27,SE,130,3.0,3.0,76,0.00,,---,0.00,VWS V14.01,2013-07-06 16:00:00,
2013-07-06 12:05:00,80.7,72.4,30.26,SSE,152,1.0,4.0,76,0.00,,---,0.00,VWS V14.01,2013-07-06 16:05:00,
2013-07-06 12:10:00,80.4,72.5,30.26,SE,138,2.0,5.0,77,0.00,,---,0.00,VWS V14.01,2013-07-06 16:10:00,
2013-07-06 12:15:00,80.8,71.3,30.26,South,185,3.0,3.0,73,0.00,,---,0.00,VWS V14.01,2013-07-06 16:15:00,
2013-07-06 12:20:00,81.3,71.8,30.26,SSW,198,1.0,7.0,73,0.00,,---,0.00,VWS V14.01,2013-07-06 16:20:00,
2013-07-06 12:26:00,81.8,73.1,30.26,SSE,151,2.0,7.0,75,0.00,,---,0.00,VWS V14.01,2013-07-06 16:26:00,
2013-07-06 12:31:00,82.1,72.2,30.26,SSE,154,2.0,6.0,72,0.00,,---,0.00,VWS V14.01,2013-07-06 16:31:00,
2013-07-06 12:36:00,82.4,72.1,30.26,SSE,160,3.0,9.0,71,0.00,,---,0.00,VWS V14.01,2013-07-06 16:36:00,
2013-07-06 12:41:00,82.6,71.8,30.26,South,171,4.0,9.0,70,0.00,,---,0.00,VWS V14.01,2013-07-06 16:41:00,
2013-07-06 12:46:00,82.4,72.9,30.25,East,98,2.0,5.0,73,0.00,,---,0.00,VWS V14.01,2013-07-06 16:46:00,
2013-07-06 12:51:00,82.8,71.6,30.25,ESE,119,2.0,8.0,69,0.00,,---,0.00,VWS V14.01,2013-07-06 16:51:00,
2013-07-06 12:56:00,82.9,72.1,30.25,SSE,156,2.0,8.0,70,0.00,,---,0.00,VWS V14.01,2013-07-06 16:56:00,
2013-07-06 13:02:00,82.9,71.7,30.25,South,189,2.0,4.0,69,0.00,,---,0.00,VWS V14.01,2013-07-06 17:02:00,
2013-07-06 13:06:00,83.2,71.6,30.24,SSE,147,3.0,9.0,68,0.00,,---,0.00,VWS V14.01,2013-07-06 17:06:00,
2013-07-06 13:12:00,83.2,71.1,30.24,SSE,156,4.0,9.0,67,0.00,,---,0.00,VWS V14.01,2013-07-06 17:12:00,
2013-07-06 13:17:00,83.3,72.1,30.24,SE,136,2.0,6.0,69,0.00,,---,0.00,VWS V14.01,2013-07-06 17:17:00,
2013-07-06 13:22:00,82.8,71.6,30.24,SSE,166,2.0,7.0,69,0.00,,---,0.00,VWS V14.01,2013-07-06 17:22:00,
2013-07-06 13:27:00,82.8,72.9,30.24,SE,139,2.0,7.0,72,0.00,,---,0.00,VWS V14.01,2013-07-06 17:27:00,
2013-07-06 13:32:00,82.8,72.0,30.23,SSE,150,5.0,9.0,70,0.00,,---,0.00,VWS V14.01,2013-07-06 17:32:00,
2013-07-06 13:37:00,83.1,72.3,30.23,SSE,152,2.0,9.0,70,0.00,,---,0.00,VWS V14.01,2013-07-06 17:37:00,
2013-07-06 13:42:00,83.5,72.7,30.23,South,189,2.0,9.0,70,0.00,,---,0.00,VWS V14.01,2013-07-06 17:42:00,
2013-07-06 13:47:00,83.6,72.4,30.23,South,169,7.0,8.0,69,0.00,,---,0.00,VWS V14.01,2013-07-06 17:47:00,
2013-07-06 13:52:00,83.7,72.5,30.23,SSE,160,3.0,8.0,69,0.00,,---,0.00,VWS V14.01,2013-07-06 17:52:00,
2013-07-06 13:57:00,83.8,72.1,30.23,SE,129,2.0,8.0,68,0.00,,---,0.00,VWS V14.01,2013-07-06 17:57:00,
2013-07-06 14:02:00,83.7,72.5,30.23,ESE,104,5.0,10.0,69,0.00,,---,0.00,VWS V14.01,2013-07-06 18:02:00,
2013-07-06 14:07:00,83.6,71.9,30.22,SSW,197,3.0,10.0,68,0.00,,---,0.00,VWS V14.01,2013-07-06 18:07:00,
2013-07-06 14:12:00,83.7,71.1,30.22,SSW,204,4.0,10.0,66,0.00,,---,0.00,VWS V14.01,2013-07-06 18:12:00,
2013-07-06 14:17:00,83.8,72.1,30.22,South,185,1.0,7.0,68,0.00,,---,0.00,VWS V14.01,2013-07-06 18:17:00,
2013-07-06 14:23:00,84.1,71.1,30.21,SE,124,2.0,8.0,65,0.00,,---,0.00,VWS V14.01,2013-07-06 18:23:00,
2013-07-06 14:29:00,84.0,71.0,30.22,South,190,3.0,10.0,65,0.00,,---,0.00,VWS V14.01,2013-07-06 18:29:00,
2013-07-06 14:34:00,83.9,71.8,30.21,ESE,123,3.0,7.0,67,0.00,,---,0.00,VWS V14.01,2013-07-06 18:34:00,
2013-07-06 14:39:00,84.0,71.4,30.21,SSE,160,2.0,7.0,66,0.00,,---,0.00,VWS V14.01,2013-07-06 18:39:00,
2013-07-06 14:44:00,84.2,71.6,30.21,South,189,3.0,7.0,66,0.00,,---,0.00,VWS V14.01,2013-07-06 18:44:00,
2013-07-06 14:50:00,84.1,71.1,30.21,South,189,3.0,10.0,65,0.00,,---,0.00,VWS V14.01,2013-07-06 18:50:00,
2013-07-06 14:55:00,84.5,71.9,30.21,WSW,250,5.0,10.0,66,0.00,,---,0.00,VWS V14.01,2013-07-06 18:55:00,
2013-07-06 15:00:00,84.5,70.5,30.21,SSE,154,3.0,4.0,63,0.00,,---,0.00,VWS V14.01,2013-07-06 19:00:00,
2013-07-06 15:05:00,84.4,71.4,30.20,SW,215,3.0,8.0,65,0.00,,---,0.00,VWS V14.01,2013-07-06 19:05:00,
2013-07-06 15:10:00,84.5,72.3,30.20,SSE,158,2.0,8.0,67,0.00,,---,0.00,VWS V14.01,2013-07-06 19:10:00,
2013-07-06 15:15:00,84.8,72.2,30.20,SE,129,6.0,7.0,66,0.00,,---,0.00,VWS V14.01,2013-07-06 19:15:00,
2013-07-06 15:20:00,84.6,71.6,30.20,South,185,6.0,9.0,65,0.00,,---,0.00,VWS V14.01,2013-07-06 19:20:00,
2013-07-06 15:25:00,84.7,73.0,30.20,SSW,196,4.0,9.0,68,0.00,,---,0.00,VWS V14.01,2013-07-06 19:25:00,
2013-07-06 15:30:00,84.7,71.2,30.19,SSE,168,6.0,7.0,64,0.00,,---,0.00,VWS V14.01,2013-07-06 19:30:00,
2013-07-06 15:35:00,84.7,70.7,30.19,SE,138,5.0,7.0,63,0.00,,---,0.00,VWS V14.01,2013-07-06 19:35:00,
2013-07-06 15:40:00,84.8,70.3,30.19,SE,133,6.0,9.0,62,0.00,,---,0.00,VWS V14.01,2013-07-06 19:40:00,
2013-07-06 15:46:00,84.8,72.2,30.19,SSE,160,2.0,2.0,66,0.00,,---,0.00,VWS V14.01,2013-07-06 19:46:00,
2013-07-06 15:51:00,85.1,70.2,30.19,South,178,3.0,7.0,61,0.00,,---,0.00,VWS V14.01,2013-07-06 19:51:00,
2013-07-06 15:56:00,85.4,71.4,30.19,SE,131,3.0,7.0,63,0.00,,---,0.00,VWS V14.01,2013-07-06 19:56:00,
2013-07-06 16:01:00,85.8,72.2,30.19,SSE,156,2.0,6.0,64,0.00,,---,0.00,VWS V14.01,2013-07-06 20:01:00,
2013-07-06 16:06:00,85.9,69.4,30.19,South,178,5.0,7.0,58,0.00,,---,0.00,VWS V14.01,2013-07-06 20:06:00,
2013-07-06 16:11:00,85.2,69.3,30.18,ESE,123,2.0,7.0,59,0.00,,---,0.00,VWS V14.01,2013-07-06 20:11:00,
2013-07-06 16:16:00,84.8,70.8,30.18,SE,132,6.0,7.0,63,0.00,,---,0.00,VWS V14.01,2013-07-06 20:16:00,
2013-07-06 16:22:00,85.1,70.6,30.18,South,178,1.0,8.0,62,0.00,,---,0.00,VWS V14.01,2013-07-06 20:22:00,
2013-07-06 16:27:00,85.1,70.2,30.18,SSW,200,4.0,8.0,61,0.00,,---,0.00,VWS V14.01,2013-07-06 20:27:00,
2013-07-06 16:32:00,85.2,70.2,30.18,South,175,2.0,5.0,61,0.00,,---,0.00,VWS V14.01,2013-07-06 20:32:00,
2013-07-06 16:37:00,85.4,70.9,30.17,South,175,2.0,9.0,62,0.00,,---,0.00,VWS V14.01,2013-07-06 20:37:00,
2013-07-06 16:42:00,85.4,69.9,30.17,South,169,3.0,9.0,60,0.00,,---,0.00,VWS V14.01,2013-07-06 20:42:00,
2013-07-06 16:47:00,85.4,70.4,30.18,West,268,0.0,5.0,61,0.00,,---,0.00,VWS V14.01,2013-07-06 20:47:00,
2013-07-06 16:52:00,85.5,71.0,30.17,South,173,3.0,7.0,62,0.00,,---,0.00,VWS V14.01,2013-07-06 20:52:00,
2013-07-06 16:57:00,85.6,71.6,30.18,SE,137,3.0,7.0,63,0.00,,---,0.00,VWS V14.01,2013-07-06 20:57:00,
2013-07-06 17:02:00,85.4,69.9,30.17,South,183,5.0,6.0,60,0.00,,---,0.00,VWS V14.01,2013-07-06 21:02:00,
2013-07-06 17:07:00,85.3,71.3,30.17,South,170,1.0,6.0,63,0.00,,---,0.00,VWS V14.01,2013-07-06 21:07:00,
2013-07-06 17:13:00,85.5,71.9,30.17,SE,143,3.0,7.0,64,0.00,,---,0.00,VWS V14.01,2013-07-06 21:13:00,
2013-07-06 17:18:00,85.4,71.4,30.17,SE,124,2.0,5.0,63,0.00,,---,0.00,VWS V14.01,2013-07-06 21:18:00,
2013-07-06 17:23:00,85.3,71.3,30.17,SE,128,2.0,6.0,63,0.00,,---,0.00,VWS V14.01,2013-07-06 21:23:00,
2013-07-06 17:28:00,85.3,71.3,30.17,South,173,2.0,6.0,63,0.00,,---,0.00,VWS V14.01,2013-07-06 21:28:00,
2013-07-06 17:33:00,85.2,70.7,30.17,SSE,150,2.0,5.0,62,0.00,,---,0.00,VWS V14.01,2013-07-06 21:33:00,
2013-07-06 17:38:00,85.3,70.8,30.17,SE,134,1.0,5.0,62,0.00,,---,0.00,VWS V14.01,2013-07-06 21:38:00,
2013-07-06 17:43:00,85.4,70.9,30.17,ESE,106,3.0,7.0,62,0.00,,---,0.00,VWS V14.01,2013-07-06 21:43:00,
2013-07-06 17:48:00,85.2,71.2,30.16,SSW,193,1.0,5.0,63,0.00,,---,0.00,VWS V14.01,2013-07-06 21:48:00,
2013-07-06 17:53:00,85.1,71.6,30.17,SE,143,1.0,7.0,64,0.00,,---,0.00,VWS V14.01,2013-07-06 21:53:00,
2013-07-06 17:59:00,84.9,70.9,30.16,SE,142,2.0,7.0,63,0.00,,---,0.00,VWS V14.01,2013-07-06 21:59:00,
2013-07-06 18:04:00,84.8,71.7,30.16,SSE,150,2.0,6.0,65,0.00,,---,0.00,VWS V14.01,2013-07-06 22:04:00,
2013-07-06 18:09:00,84.4,70.9,30.16,SSE,152,2.0,8.0,64,0.00,,---,0.00,VWS V14.01,2013-07-06 22:09:00,
2013-07-06 18:14:00,84.0,71.4,30.16,ESE,122,2.0,8.0,66,0.00,,---,0.00,VWS V14.01,2013-07-06 22:14:00,
2013-07-06 18:20:00,84.1,72.0,30.16,SE,142,3.0,4.0,67,0.00,,---,0.00,VWS V14.01,2013-07-06 22:20:00,
2013-07-06 18:25:00,83.9,71.3,30.15,SE,140,1.0,7.0,66,0.00,,---,0.00,VWS V14.01,2013-07-06 22:25:00,
2013-07-06 18:30:00,83.9,71.8,30.15,SSE,158,4.0,7.0,67,0.00,,---,0.00,VWS V14.01,2013-07-06 22:30:00,
2013-07-06 18:35:00,83.9,71.8,30.16,South,170,3.0,7.0,67,0.00,,---,0.00,VWS V14.01,2013-07-06 22:35:00,
2013-07-06 18:40:00,83.8,72.1,30.16,SE,128,2.0,7.0,68,0.00,,---,0.00,VWS V14.01,2013-07-06 22:40:00,
2013-07-06 18:45:00,83.5,71.8,30.16,South,191,1.0,5.0,68,0.00,,---,0.00,VWS V14.01,2013-07-06 22:45:00,
2013-07-06 18:51:00,83.2,72.0,30.16,SE,125,2.0,6.0,69,0.00,,---,0.00,VWS V14.01,2013-07-06 22:51:00,
2013-07-06 18:56:00,82.8,72.0,30.16,SE,134,0.0,6.0,70,0.00,,---,0.00,VWS V14.01,2013-07-06 22:56:00,
2013-07-06 19:01:00,82.4,71.6,30.16,SSE,157,0.0,2.0,70,0.00,,---,0.00,VWS V14.01,2013-07-06 23:01:00,
2013-07-06 19:06:00,82.1,71.3,30.16,South,191,2.0,7.0,70,0.00,,---,0.00,VWS V14.01,2013-07-06 23:06:00,
2013-07-06 19:11:00,81.8,71.5,30.16,SE,137,0.0,7.0,71,0.00,,---,0.00,VWS V14.01,2013-07-06 23:11:00,
2013-07-06 19:16:00,82.0,71.7,30.16,SE,137,0.0,1.0,71,0.00,,---,0.00,VWS V14.01,2013-07-06 23:16:00,
2013-07-06 19:21:00,82.3,72.0,30.16,SE,137,0.0,1.0,71,0.00,,---,0.00,VWS V14.01,2013-07-06 23:21:00,
2013-07-06 19:26:00,82.6,72.7,30.16,SE,135,0.0,2.0,72,0.00,,---,0.00,VWS V14.01,2013-07-06 23:26:00,
2013-07-06 19:32:00,82.8,72.9,30.17,SE,135,0.0,0.0,72,0.00,,---,0.00,VWS V14.01,2013-07-06 23:32:00,
2013-07-06 19:37:00,82.8,72.9,30.17,SE,135,0.0,0.0,72,0.00,,---,0.00,VWS V14.01,2013-07-06 23:37:00,
2013-07-06 19:42:00,82.6,72.7,30.17,SE,135,0.0,1.0,72,0.00,,---,0.00,VWS V14.01,2013-07-06 23:42:00,
2013-07-06 19:47:00,82.3,72.0,30.17,SE,135,0.0,1.0,71,0.00,,---,0.00,VWS V14.01,2013-07-06 23:47:00,
2013-07-06 19:52:00,82.0,72.1,30.17,SE,135,0.0,1.0,72,0.00,,---,0.00,VWS V14.01,2013-07-06 23:52:00,
2013-07-06 19:57:00,81.7,73.4,30.17,SE,135,0.0,1.0,76,0.00,,---,0.00,VWS V14.01,2013-07-06 23:57:00,
2013-07-06 20:02:00,81.4,71.9,30.17,SE,135,0.0,0.0,73,0.00,,---,0.00,VWS V14.01,2013-07-07 00:02:00,
2013-07-06 20:07:00,81.1,72.8,30.17,SE,135,0.0,0.0,76,0.00,,---,0.00,VWS V14.01,2013-07-07 00:07:00,
2013-07-06 20:12:00,80.7,74.0,30.17,SE,135,0.0,0.0,80,0.00,,---,0.00,VWS V14.01,2013-07-07 00:12:00,
2013-07-06 20:18:00,80.3,73.6,30.17,SE,135,0.0,0.0,80,0.00,,---,0.00,VWS V14.01,2013-07-07 00:18:00,
2013-07-06 20:23:00,79.7,73.7,30.17,SE,135,0.0,0.0,82,0.00,,---,0.00,VWS V14.01,2013-07-07 00:23:00,
2013-07-06 20:28:00,79.3,73.7,30.17,SE,135,0.0,0.0,83,0.00,,---,0.00,VWS V14.01,2013-07-07 00:28:00,
2013-07-06 20:33:00,79.0,73.8,30.17,SE,135,0.0,0.0,84,0.00,,---,0.00,VWS V14.01,2013-07-07 00:33:00,
2013-07-06 20:38:00,78.5,73.6,30.17,SE,135,0.0,0.0,85,0.00,,---,0.00,VWS V14.01,2013-07-07 00:38:00,
2013-07-06 20:43:00,78.0,73.5,30.17,SE,135,0.0,0.0,86,0.00,,---,0.00,VWS V14.01,2013-07-07 00:43:00,
2013-07-06 20:49:00,77.6,73.4,30.17,SE,135,0.0,0.0,87,0.00,,---,0.00,VWS V14.01,2013-07-07 00:49:00,
2013-07-06 20:54:00,77.4,73.6,30.17,SE,135,0.0,0.0,88,0.00,,---,0.00,VWS V14.01,2013-07-07 00:54:00,
2013-07-06 20:59:00,77.2,73.4,30.17,SE,135,0.0,0.0,88,0.00,,---,0.00,VWS V14.01,2013-07-07 00:59:00,
2013-07-06 21:05:00,76.8,73.3,30.18,SE,135,0.0,0.0,89,0.00,,---,0.00,VWS V14.01,2013-07-07 01:05:00,
2013-07-06 21:10:00,76.5,73.0,30.18,SE,135,0.0,0.0,89,0.00,,---,0.00,VWS V14.01,2013-07-07 01:10:00,
2013-07-06 21:15:00,76.2,72.7,30.19,SE,135,0.0,0.0,89,0.00,,---,0.00,VWS V14.01,2013-07-07 01:15:00,
2013-07-06 21:20:00,75.9,72.4,30.19,SE,135,0.0,0.0,89,0.00,,---,0.00,VWS V14.01,2013-07-07 01:20:00,
2013-07-06 21:25:00,75.7,72.6,30.19,SE,135,0.0,0.0,90,0.00,,---,0.00,VWS V14.01,2013-07-07 01:25:00,
2013-07-06 21:30:00,75.5,72.7,30.20,SE,135,0.0,0.0,91,0.00,,---,0.00,VWS V14.01,2013-07-07 01:30:00,
2013-07-06 21:35:00,75.3,72.5,30.20,SE,135,0.0,0.0,91,0.00,,---,0.00,VWS V14.01,2013-07-07 01:35:00,
2013-07-06 21:40:00,75.1,72.3,30.21,SE,135,0.0,0.0,91,0.00,,---,0.00,VWS V14.01,2013-07-07 01:40:00,
2013-07-06 21:45:00,74.8,72.3,30.21,SE,135,0.0,0.0,92,0.00,,---,0.00,VWS V14.01,2013-07-07 01:45:00,
2013-07-06 21:50:00,74.7,72.2,30.21,SE,135,0.0,1.0,92,0.00,,---,0.00,VWS V14.01,2013-07-07 01:50:00,
2013-07-06 21:56:00,74.4,71.9,30.21,SE,135,0.0,1.0,92,0.00,,---,0.00,VWS V14.01,2013-07-07 01:56:00,
2013-07-06 22:01:00,74.0,71.5,30.20,SE,135,0.0,0.0,92,0.00,,---,0.00,VWS V14.01,2013-07-07 02:01:00,
2013-07-06 22:06:00,73.8,71.3,30.21,SE,135,0.0,0.0,92,0.00,,---,0.00,VWS V14.01,2013-07-07 02:06:00,
2013-07-06 22:11:00,73.7,71.2,30.21,SE,135,0.0,0.0,92,0.00,,---,0.00,VWS V14.01,2013-07-07 02:11:00,
2013-07-06 22:16:00,73.7,71.6,30.22,SE,135,0.0,0.0,93,0.00,,---,0.00,VWS V14.01,2013-07-07 02:16:00,
2013-07-06 22:21:00,73.7,71.6,30.22,SE,135,0.0,0.0,93,0.00,,---,0.00,VWS V14.01,2013-07-07 02:21:00,
2013-07-06 22:26:00,73.7,71.9,30.23,WSW,256,1.0,6.0,94,0.01,,---,0.01,VWS V14.01,2013-07-07 02:26:00,
2013-07-06 22:31:00,73.9,71.1,30.23,WNW,284,2.0,8.0,91,0.02,,---,0.02,VWS V14.01,2013-07-07 02:31:00,
2013-07-06 22:36:00,73.7,70.6,30.23,SSE,164,1.0,8.0,90,0.02,,---,0.02,VWS V14.01,2013-07-07 02:36:00,
2013-07-06 22:41:00,73.6,70.8,30.23,WNW,298,2.0,8.0,91,0.03,,---,0.03,VWS V14.01,2013-07-07 02:41:00,
2013-07-06 22:46:00,73.3,70.5,30.23,West,276,0.0,1.0,91,0.03,,---,0.03,VWS V14.01,2013-07-07 02:46:00,
2013-07-06 22:51:00,73.2,70.7,30.23,West,276,0.0,1.0,92,0.03,,---,0.03,VWS V14.01,2013-07-07 02:51:00,
2013-07-06 22:56:00,73.0,70.5,30.23,West,276,0.0,1.0,92,0.03,,---,0.03,VWS V14.01,2013-07-07 02:56:00,
2013-07-06 23:01:00,72.9,70.4,30.23,SW,214,0.0,0.0,92,0.03,,---,0.03,VWS V14.01,2013-07-07 03:01:00,
2013-07-06 23:07:00,72.8,70.7,30.22,SW,214,0.0,0.0,93,0.03,,---,0.03,VWS V14.01,2013-07-07 03:07:00,
2013-07-06 23:12:00,72.7,70.6,30.22,SW,214,0.0,0.0,93,0.03,,---,0.03,VWS V14.01,2013-07-07 03:12:00,
2013-07-06 23:17:00,72.6,70.5,30.22,SW,214,0.0,0.0,93,0.03,,---,0.03,VWS V14.01,2013-07-07 03:17:00,
2013-07-06 23:23:00,72.4,70.6,30.22,SW,214,0.0,0.0,94,0.03,,---,0.03,VWS V14.01,2013-07-07 03:23:00,
2013-07-06 23:29:00,72.3,70.5,30.21,SW,214,0.0,0.0,94,0.04,,---,0.04,VWS V14.01,2013-07-07 03:29:00,
2013-07-06 23:34:00,72.2,70.4,30.21,SW,214,0.0,0.0,94,0.02,,---,0.04,VWS V14.01,2013-07-07 03:34:00,
2013-07-06 23:39:00,72.1,70.3,30.21,SW,214,0.0,0.0,94,0.02,,---,0.04,VWS V14.01,2013-07-07 03:39:00,
2013-07-06 23:44:00,72.0,70.5,30.21,SW,214,0.0,0.0,95,0.02,,---,0.04,VWS V14.01,2013-07-07 03:44:00,
2013-07-06 23:49:00,71.9,70.4,30.21,SW,214,0.0,0.0,95,0.01,,---,0.04,VWS V14.01,2013-07-07 03:49:00,
2013-07-06 23:54:00,71.7,70.2,30.20,SW,214,0.0,0.0,95,0.01,,---,0.04,VWS V14.01,2013-07-07 03:54:00,